Home > Weather > Tampa > Past weeks

Flag for U.S.A. Weather for the Past 2 Weeks in Tampa, Florida, U.S.A.

Now
61 °F

Clear.


Feels Like: 61 °F
Forecast: 50 / 67 °F
Wind: 3 mph from Southwest

Location: Tampa, Peter O Knight Airport

Current Time: Feb 12, 2016 at 10:18:16 PM

Latest Report: Feb 12, 2016 at 9:35 PM


Visibility: 10 mi

Pressure: 30.23 "Hg

Humidity: 88%

Dew point: 57 °F

Location of TampaLocation

Historic Weather in Tampa — Graph

°F

Tampa Temperature Yesterday

Maximum temperature yesterday: 68 °F (at 3:15 PM)
Minimum temperature yesterday: 46 °F (at 12:15 AM)
Average temperature yesterday: 56 °F

High & Low Weather Summary for the Past Weeks

 TemperatureHumidityPressure
High84 °F (Feb 3, 1:15 PM)100% (Jan 28, 8:15 PM)30.36 "Hg (Jan 28, 8:15 PM)
Low45 °F (Feb 8, 5:55 AM)26% (Feb 5, 3:15 PM)29.81 "Hg (Jan 28, 8:15 PM)
Average62 °F73%30.12 "Hg
* Reported Jan 28 8:15 PM — Feb 12 8:35 PM, Tampa, Weather by CustomWeather, © 2016

Note: Actual official high and low records may vary slightly from our data, if they occured in-between our weather recording intervals... More about our weather records

Advertising

Tampa Weather History for the Previous 24 Hours

 ConditionsComfort  
Time TempWeatherWind HumidityBarometerVisibility
8:35 PM
Fri, Feb 12
63 °FClear.No wind83%30.23 "Hg10 mi
7:55 PM63 °FClear.5 mph83%30.23 "Hg10 mi
7:35 PM63 °FClear.6 mph88%30.22 "Hg10 mi
7:15 PM63 °FClear.6 mph88%30.22 "Hg10 mi
6:55 PM63 °FClear.7 mph88%30.22 "Hg10 mi
6:15 PM66 °FSunny.3 mph73%30.22 "Hg10 mi
5:55 PM68 °FSunny.5 mph69%30.22 "Hg10 mi
5:15 PM70 °FSunny.6 mph64%30.22 "Hg10 mi
4:35 PM72 °FSunny.6 mph61%30.22 "Hg10 mi
3:55 PM72 °FSunny.7 mph61%30.23 "Hg10 mi
3:35 PM72 °FSunny.7 mph61%30.23 "Hg10 mi
3:15 PM72 °FSunny.9 mph61%30.23 "Hg10 mi
2:55 PM73 °FSunny.9 mph57%30.24 "Hg10 mi
2:35 PM73 °FSunny.10 mph57%30.24 "HgN/A
2:15 PM73 °FSunny.9 mph57%30.24 "Hg10 mi
1:55 PM73 °FSunny.8 mph57%30.25 "Hg10 mi
1:35 PM72 °FSunny.6 mph61%30.26 "Hg10 mi
1:15 PM70 °FSunny.12 mph64%30.27 "Hg10 mi
12:55 PM72 °FSunny.9 mph65%30.28 "Hg10 mi
12:35 PM70 °FSunny.12 mph64%30.29 "Hg10 mi
12:15 PM70 °FSunny.10 mph64%30.30 "Hg10 mi
11:55 AM70 °FSunny.12 mph64%30.31 "Hg10 mi
11:35 AM68 °FSunny.10 mph73%30.32 "Hg10 mi
11:15 AM66 °FSunny.8 mph73%30.32 "Hg10 mi
10:55 AM64 °FSunny.7 mph73%30.32 "Hg10 mi
10:35 AM64 °FSunny.5 mph73%30.33 "Hg10 mi
10:15 AM63 °FSunny.6 mph77%30.33 "Hg10 mi
9:55 AM61 °FSunny.7 mph83%30.32 "Hg10 mi
9:35 AM61 °FSunny.6 mph83%30.31 "Hg10 mi
9:15 AM61 °FSunny.5 mph83%30.31 "Hg10 mi
8:55 AM59 °FSunny.6 mph88%30.31 "Hg10 mi
8:35 AM59 °FSunny.3 mph88%30.30 "Hg10 mi
8:15 AM59 °FSunny.3 mph94%30.30 "Hg10 mi
7:55 AM57 °FSunny.3 mph94%30.30 "Hg10 mi
7:35 AM55 °FSunny.3 mph100%30.30 "Hg10 mi
6:55 AM55 °FClear.5 mph100%30.30 "Hg10 mi
6:35 AM55 °FClear.5 mph100%30.30 "Hg10 mi
6:15 AM55 °FPassing clouds.6 mph94%30.28 "Hg7 mi
5:55 AM55 °FFog.6 mph94%30.28 "Hg1 mi
5:35 AM55 °FPassing clouds.5 mph100%30.28 "Hg7 mi
5:15 AM55 °FClear.3 mph100%30.27 "Hg7 mi
4:55 AM55 °FFog.5 mph94%30.27 "Hg5 mi
4:35 AM54 °FClear.3 mph100%30.26 "Hg7 mi
4:15 AM54 °FFog.No wind100%30.26 "Hg1 mi
3:55 AM54 °FFog.No wind94%30.26 "Hg1 mi
3:35 AM52 °FFog.No wind100%30.26 "Hg4 mi
3:15 AM52 °FClear.No wind100%30.27 "Hg10 mi
2:55 AM52 °FClear.No wind100%30.27 "Hg10 mi
2:35 AM52 °FClear.No wind100%30.27 "Hg7 mi
2:15 AM52 °FClear.No wind100%30.27 "Hg10 mi
1:55 AM54 °FClear.No wind94%30.28 "Hg10 mi
1:35 AM52 °FClear.No wind100%30.29 "Hg10 mi
1:15 AM52 °FFog.No wind100%30.29 "Hg5 mi
12:35 AM52 °FClear.No wind94%30.30 "Hg7 mi
11:55 PM
Thu, Feb 11
54 °FClear.No wind94%30.31 "Hg10 mi
11:35 PM54 °FClear.No wind94%30.31 "Hg10 mi
11:15 PM55 °FClear.No wind88%30.31 "Hg10 mi
10:55 PM55 °FClear.No wind94%30.31 "Hg10 mi
10:35 PM54 °FClear.No wind94%30.31 "Hg10 mi
Weather by CustomWeather, © 2016

See weather overviewHow to use our weather pages